Regional Weather Roundup
Issued by NWS New Orleans/Baton Rouge, LA

Home | Current Version | Previous Version | Graphics & Text | Print | Product List | Glossary On
Versions: 1 2 3 4 5 6 7 8 9 10 11 12 13 14 15 16 17 18 19 20 21 22 23 24 25 26 27 28 29 30 31 32 33 34 35 36 37 38 39 40 41 42 43 44 45 46 47 48 49 50
725
ASUS44 KLIX 171801
RWRLIX
NEW ORLEANS REGIONAL WEATHER ROUNDUP
NATIONAL WEATHER SERVICE NEW ORLEANS LA
100 PM CDT WED SEP 17 2014

NOTE: "FAIR" INDICATES FEW OR NO CLOUDS BELOW 12,000 FEET WITH NO
      SIGNIFICANT WEATHER AND/OR OBSTRUCTIONS TO VISIBILITY.
      SKY/WX - SKY CONDITION AND SIGNIFICANT WEATHER.
      TMP - AIR TEMPERATURE.     DP    - DEWPOINT TEMPERATURE.
      RH  - RELATIVE HUMIDITY.   PRES  - PRESSURE.
      HI  - HEAT INDEX.          WCI   - WIND CHILL INDEX.

*  THESE STATIONS ARE NOT NWS OR FAA STATIONS AND ARE NOT UNDER
   NWS QUALITY CONTROL.

LAZ038-040-048-061>063-065>067-069-171900-
SOUTHEAST LOUISIANA

CITY           SKY/WX    TMP DP  RH WIND       PRES   REMARKS
N.O. AUDUBON     N/A     88  76  67 MISG        N/A  HX  98
6HR MIN TEMP:  75; 6HR MAX TEMP:  90;

N.O. INTL ARPT PTSUNNY   86  72  62 NE10      29.96F
6HR MIN TEMP:  73; 6HR MAX TEMP:  87;

N.O. LAKEFRONT   N/A     85  73  67 N8        29.97S
6HR MIN TEMP:  78; 6HR MAX TEMP:  85;

N.O. DOWNTOWN* CLOUDY    82  70  65 N6        29.96F
6HR MIN TEMP:  77; 6HR MAX TEMP:  84;

SLIDELL        PTSUNNY   85  72  65 CALM      29.95F
6HR MIN TEMP:  71; 6HR MAX TEMP:  86;

BATON ROUGE    PTSUNNY   85  73  67 E6        29.97F
6HR MIN TEMP:  71; 6HR MAX TEMP:  86;

BOOTHVILLE       N/A     86  74  67 NE6       29.95F
6HR MIN TEMP:  78; 6HR MAX TEMP:  87;

BELLE CHASSE   PTSUNNY   87  71  58 E5        29.94F
6HR MIN TEMP:  73; 6HR MAX TEMP:  88;

BOGALUSA*        N/A     87  69  54 CALM      29.97F
6HR MIN TEMP:  73; 6HR MAX TEMP:  89;

GALLIANO*      NOT AVBL
NEW ROADS*     MOCLDY    83  73  71 NE5       29.97F
6HR MIN TEMP:  72; 6HR MAX TEMP:  84;

GONZALES*      MOCLDY    83  76  79 CALM      29.96F
6HR MIN TEMP:  70; 6HR MAX TEMP:  85;

HAMMOND*       NOT AVBL
HOUMA*         MOSUNNY   88  68  51 N3        29.96F
PORT FOURCHON* CLOUDY    82  75  78 SW6       29.99S

$$

MSZ070-080>082-171900-
SOUTHERN MISSISSIPPI

CITY           SKY/WX    TMP DP  RH WIND       PRES   REMARKS
MCCOMB         CLOUDY    85  71  63 VRB3      29.97F
6HR MIN TEMP:  71; 6HR MAX TEMP:  86;

GULFPORT         N/A     87  71  58 VRB3      29.94F
6HR MIN TEMP:  72; 6HR MAX TEMP:  88;

BILOXI           N/A     87  71  59 VRB2      29.95F
6HR MIN TEMP:  72; 6HR MAX TEMP:  87;

PASCAGOULA       N/A     86  70  58 CALM      29.94F
6HR MIN TEMP:  71; 6HR MAX TEMP:  89;

STENNIS ARPT*  MOSUNNY   82  72  69 E3        29.96F

$$

COASTAL OBSERVATIONS
LAKE AND NEARSHORE STATIONS

STATION/POSITION TIME  TEMP    WIND        PRES    WAVE
                       AIR SEA DIR/SP/G            HT/PER
                 (UTC) (F)     (DEG/KT/KT) (MB)    (FT/S)
PASCAGOULA       1700   83     210/  7/  9 1014.0
WAVELAND YACHT   1700   81     340/  1/  2 1014.0
GRAND ISLE       1700   83 86   60/  2/  6 1015.1
SOUTHWEST PASS   1700   93 91  310/  3/  5 1014.8
NEW CANAL        1700   80 82   10/  6/  8 1015.2
SHELL BEACH      1700   81 80   10/  7/  8 1014.4

OFFSHORE STATIONS

STATION/POSITION TIME  TEMP    WIND        PRES    WAVE
                       AIR SEA DIR/SP/G            HT/PER
                 (UTC) (F)     (DEG/KT/KT) (MB)    (FT/S)
64 S DAUPHIN ISL 1704   83 87   70/  4/  6 1014.5    2/ 6

$$




USA.gov is the U.S. government's official web portal to all federal, state and local government web resources and services.